Weather History for Decimomannu, Italy

Change the Weather History Date:

Monday, September 10, 2012

  Actual Average Record
Temperature  
Mean Temperature 74 °F -  
Max Temperature 88 °F 80 °F 91 °F (2008)
Min Temperature 59 °F 59 °F 59 °F (2000)
Cooling Degree Days 8    
Growing Degree Days 24 (Base 50)    
Moisture  
Dew Point 61 °F    
Average Humidity 64    
Maximum Humidity 83    
Minimum Humidity 25    
Precipitation  
Precipitation 0.00 in 0.06 in - ()
Sea Level Pressure  
Sea Level Pressure 30.04 in    
Wind  
Wind Speed 5 mph ()    
Max Wind Speed 17 mph    
Max Gust Speed -    
Visibility 6.1 miles    
Events      
Averages and records for this station are not official NWS values.
T = Trace of Precipitation, MM = Missing Value Source: Averaged Metar Reports

Daily Weather History Graph

Daily Weather History Graph

Search for Another Location

Airport:

Trip Planner

Search our weather history database for the weather conditions in past years. The results will help you decide how hot, cold, wet, or windy it might be!

Date:

Astronomy

Sep. 10, 2012 Rise Set
Actual Time 7:01 AM CEST 7:40 PM CEST
Civil Twilight 6:33 AM CEST 8:07 PM CEST
Nautical Twilight 6:01 AM CEST 8:39 PM CEST
Astronomical Twilight 5:28 AM CEST 9:12 PM CEST
Moon 1:08 AM CEST (9/10) 3:56 PM CEST (9/10)
Length of Visible Light 13h 33m
Length of Day
12h 39m
Waning Crescent, 32% of the Moon is Illuminated
Sep 10
Waning Crescent
Sep 16
New
Sep 22
First Quarter
Sep 30
Full
Oct 8
Last Quarter

Hourly Weather History & Observations

Time (CEST) Temp. Heat Index Dew Point Humidity Pressure Visibility Wind Dir Wind Speed Gust Speed Precip Events Conditions
12:55 AM 69.8 °F - 62.6 °F 78% 30.04 in 6.2 mi North 5.8 mph - N/A   Partly Cloudy
1:55 AM 68.0 °F - 60.8 °F 78% 30.04 in 5.6 mi West 4.6 mph - N/A   Partly Cloudy
2:00 AM 68 °F - 61 °F 71% 30.05 in 6 mi West 4.6 mph - -   Mist
2:55 AM 66.2 °F - 59.0 °F 78% 30.04 in 5.0 mi NW 3.5 mph - N/A   Partly Cloudy
3:55 AM 66.2 °F - 59.0 °F 78% 30.04 in 5.0 mi NNW 5.8 mph - N/A   Partly Cloudy
4:55 AM 66.2 °F - 59.0 °F 78% 30.01 in 5.0 mi NNW 4.6 mph - N/A   Partly Cloudy
5:00 AM 66 °F - 59 °F 71% 30.03 in 5 mi NNW 4.6 mph - -   Mist
6:55 AM 60.8 °F - 53.6 °F 77% 30.04 in 3.7 mi SSW 1.2 mph - N/A   Scattered Clouds
7:55 AM 62.6 °F - 55.4 °F 77% 30.04 in 3.7 mi NNW 1.2 mph - N/A   Partly Cloudy
8:00 AM 62 °F - 55 °F 71% 30.06 in 4 mi NNW 1.2 mph - -   Mist
8:55 AM 64.4 °F - 57.2 °F 77% 30.04 in 3.7 mi WNW 3.5 mph - N/A   Partly Cloudy
9:55 AM 69.8 °F - 60.8 °F 73% 30.06 in 4.3 mi NNW 2.3 mph - N/A   Partly Cloudy
10:55 AM 77.0 °F - 62.6 °F 61% 30.06 in 5.0 mi NNW 2.3 mph - N/A   Partly Cloudy
11:00 AM 76 °F - 62 °F 53% 30.07 in 5 mi NNW 2.3 mph - -   Mist
11:55 AM 84.2 °F 83.8 °F 59.0 °F 42% 30.06 in 6.2 mi East 2.3 mph - N/A   Partly Cloudy
12:55 PM 86.0 °F 84.2 °F 53.6 °F 33% 30.04 in 6.2 mi NNW 3.5 mph - N/A   Partly Cloudy
1:55 PM 89.6 °F 88.1 °F 57.2 °F 33% 30.04 in 6.2 mi SSE 13.8 mph - N/A   Partly Cloudy
2:00 PM 89 °F - 58 °F 25% 30.05 in 12 mi SSE 13.8 mph - -   Scattered Clouds
2:55 PM 86.0 °F 85.4 °F 59.0 °F 40% 30.04 in 6.2 mi SSE 17.3 mph - N/A   Partly Cloudy
4:55 PM 82.4 °F 83.9 °F 64.4 °F 54% 30.01 in 6.2 mi SSE 15.0 mph - N/A   Partly Cloudy
5:00 PM 83 °F - 64 °F 43% 30.03 in 12 mi SSE 15.0 mph - -   Scattered Clouds
5:55 PM 82.4 °F 85.4 °F 68.0 °F 62% 30.04 in 6.2 mi SE 15.0 mph - N/A   Partly Cloudy
6:55 PM 78.8 °F - 62.6 °F 57% 30.04 in 6.2 mi SE 10.4 mph - N/A   Partly Cloudy
7:55 PM 77.0 °F - 66.2 °F 69% 30.01 in - SE 8.1 mph - N/A   Clear
8:00 PM 77 °F - 66 °F 60% 30.03 in 9 mi SE 8.1 mph - -  
9:55 PM 73.4 °F - 66.2 °F 78% 30.06 in - Calm Calm - N/A   Clear
10:55 PM 71.6 °F - 66.2 °F 83% 30.06 in - ENE 4.6 mph - N/A   Clear
11:00 PM 72 °F - 65 °F 74% 30.07 in 9 mi ENE 4.6 mph - -  
11:55 PM 69.8 °F - 64.4 °F 83% 30.06 in 6.2 mi East 3.5 mph - N/A   Partly Cloudy